Rickenbacker, OH

9:09 PM EDT on April 25, 2018 (GMT -0400)
Rickenbacker International

Weather History for KLCK - June, 2013

Change the Weather History Date:

Friday, June 14, 2013

  Actual Average Record
Temperature  
Mean Temperature 69 °F -  
Max Temperature 78 °F 80 °F 91 °F (2001)
Min Temperature 60 °F 60 °F 50 °F (2014)
Cooling Degree Days 4    
Growing Degree Days 19 (Base 50)    
Moisture  
Dew Point 53 °F    
Average Humidity 56    
Maximum Humidity 79    
Minimum Humidity 36    
Precipitation  
Precipitation 0.00 in - - ()
Sea Level Pressure  
Sea Level Pressure 29.99 in    
Wind  
Wind Speed 7 mph (NNW)    
Max Wind Speed 16 mph    
Max Gust Speed 22 mph    
Visibility 10 miles    
Events      
Averages and records for this station are not official NWS values.
T = Trace of Precipitation, MM = Missing Value Source: NWS Daily Summary

Daily Weather History Graph

Daily Weather History Graph

Search for Another Location

Airport or City:

Astronomy

Jun. 14, 2013 Rise Set
Actual Time 6:02 AM EDT 9:01 PM EDT
Civil Twilight 5:30 AM EDT 9:34 PM EDT
Nautical Twilight 4:48 AM EDT 10:15 PM EDT
Astronomical Twilight 4:00 AM EDT 11:03 PM EDT
Moon 11:36 AM EDT (6/14) 12:07 AM EDT (6/14)
Length of Visible Light 16h 03m
Length of Day
14h 58m
Waxing Crescent, 30% of the Moon is Illuminated
Jun 14
Waxing Crescent
Jun 16
First Quarter
Jun 23
Full
Jun 30
Last Quarter
Jul 8
New

Hourly Weather History & Observations

Time (EDT) Temp. Dew Point Humidity Pressure Visibility Wind Dir Wind Speed Gust Speed Precip Events Conditions
12:15 AM 68.2 °F 54.1 °F 61% 29.90 in 10.0 mi North 6.9 mph - N/A   Scattered Clouds
12:35 AM 68.0 °F 54.5 °F 62% 29.90 in 10.0 mi North 6.9 mph - N/A   Overcast
12:55 AM 68.0 °F 54.3 °F 62% 29.90 in 10.0 mi North 6.9 mph - N/A   Scattered Clouds
1:15 AM 66.6 °F 54.5 °F 65% 29.91 in 10.0 mi North 4.6 mph - N/A   Clear
1:35 AM 66.2 °F 54.5 °F 66% 29.91 in 10.0 mi North 4.6 mph - N/A   Clear
1:55 AM 65.7 °F 54.3 °F 67% 29.91 in 10.0 mi NNW 4.6 mph - N/A   Clear
2:15 AM 64.6 °F 54.1 °F 69% 29.91 in 10.0 mi NW 4.6 mph - N/A   Scattered Clouds
2:35 AM 64.2 °F 53.4 °F 68% 29.91 in 10.0 mi NW 5.8 mph - N/A   Scattered Clouds
2:55 AM 64.0 °F 52.9 °F 67% 29.91 in 10.0 mi NW 3.5 mph - N/A   Clear
3:15 AM 63.3 °F 53.6 °F 71% 29.91 in 10.0 mi NW 5.8 mph - N/A   Scattered Clouds
3:35 AM 62.6 °F 54.1 °F 74% 29.91 in 10.0 mi NW 3.5 mph - N/A   Clear
3:55 AM 61.9 °F 54.1 °F 76% 29.91 in 10.0 mi NW 5.8 mph - N/A   Clear
4:15 AM 61.3 °F 54.3 °F 78% 29.91 in 10.0 mi NW 4.6 mph - N/A   Clear
4:35 AM 61.2 °F 54.3 °F 78% 29.91 in 10.0 mi NW 4.6 mph - N/A   Clear
4:55 AM 61.0 °F 54.1 °F 78% 29.92 in 10.0 mi NW 5.8 mph - N/A   Clear
5:15 AM 60.8 °F 54.1 °F 79% 29.92 in 10.0 mi NW 4.6 mph - N/A   Scattered Clouds
5:35 AM 61.2 °F 54.1 °F 78% 29.92 in 10.0 mi NW 4.6 mph - N/A   Clear
5:55 AM 60.4 °F 53.8 °F 79% 29.92 in 10.0 mi NW 4.6 mph - N/A   Clear
6:15 AM 60.4 °F 54.0 °F 79% 29.93 in 10.0 mi NW 5.8 mph - N/A   Clear
6:35 AM 61.0 °F 54.1 °F 78% 29.95 in 10.0 mi NW 5.8 mph - N/A   Clear
6:55 AM 61.9 °F 54.5 °F 77% 29.96 in 10.0 mi NNW 8.1 mph - N/A   Clear
7:15 AM 63.1 °F 54.9 °F 74% 29.96 in 10.0 mi NNW 5.8 mph - N/A   Clear
7:35 AM 64.8 °F 55.0 °F 71% 29.96 in 10.0 mi NNW 8.1 mph - N/A   Clear
7:55 AM 66.0 °F 54.7 °F 67% 29.97 in 10.0 mi NNW 10.4 mph - N/A   Clear
8:15 AM 66.9 °F 54.7 °F 65% 29.98 in 10.0 mi NNW 10.4 mph - N/A   Clear
8:35 AM 67.8 °F 54.5 °F 62% 29.99 in 10.0 mi NNW 10.4 mph - N/A   Clear
8:55 AM 68.7 °F 54.5 °F 60% 29.99 in 10.0 mi NNW 8.1 mph - N/A   Clear
9:15 AM 70.0 °F 54.9 °F 59% 30.00 in 10.0 mi NNW 9.2 mph - N/A   Clear
9:35 AM 70.7 °F 55.0 °F 58% 30.01 in 10.0 mi NNW 8.1 mph - N/A   Clear
9:55 AM 71.2 °F 54.7 °F 56% 30.01 in 10.0 mi NNW 12.7 mph - N/A   Clear
10:15 AM 71.8 °F 54.3 °F 54% 30.02 in 10.0 mi NNW 12.7 mph 18.4 mph N/A   Clear
10:35 AM 72.5 °F 54.5 °F 53% 30.02 in 10.0 mi North 10.4 mph 19.6 mph N/A   Scattered Clouds
10:55 AM 72.7 °F 54.1 °F 52% 30.02 in 10.0 mi North 12.7 mph 16.1 mph N/A   Mostly Cloudy
11:15 AM 72.9 °F 54.5 °F 52% 30.03 in 10.0 mi NNE 13.8 mph 20.7 mph N/A   Mostly Cloudy
11:35 AM 73.9 °F 54.1 °F 50% 30.03 in 10.0 mi NNW 11.5 mph - N/A   Mostly Cloudy
11:55 AM 73.4 °F 54.1 °F 51% 30.03 in 10.0 mi NNW 9.2 mph 18.4 mph N/A   Mostly Cloudy
12:15 PM 73.6 °F 53.4 °F 49% 30.04 in 10.0 mi North 10.4 mph 19.6 mph N/A   Mostly Cloudy
12:35 PM 74.1 °F 52.7 °F 47% 30.04 in 10.0 mi NNW 11.5 mph 17.3 mph N/A   Mostly Cloudy
12:55 PM 75.2 °F 52.5 °F 45% 30.04 in 10.0 mi NNW 16.1 mph 21.9 mph N/A   Mostly Cloudy
1:15 PM 75.0 °F 51.4 °F 44% 30.04 in 10.0 mi NNW 9.2 mph 16.1 mph N/A   Mostly Cloudy
1:35 PM 75.4 °F 51.1 °F 42% 30.04 in 10.0 mi NNW 12.7 mph 19.6 mph N/A   Mostly Cloudy
1:55 PM 75.7 °F 51.1 °F 42% 30.04 in 10.0 mi North 12.7 mph 18.4 mph N/A   Overcast
2:15 PM 75.4 °F 51.8 °F 44% 30.03 in 10.0 mi North 12.7 mph 16.1 mph N/A   Mostly Cloudy
2:35 PM 75.6 °F 50.7 °F 42% 30.02 in 10.0 mi NNW 6.9 mph 20.7 mph N/A   Mostly Cloudy
2:55 PM 76.6 °F 50.7 °F 40% 30.02 in 10.0 mi NNW 11.5 mph 16.1 mph N/A   Scattered Clouds
3:15 PM 77.0 °F 51.3 °F 40% 30.02 in 10.0 mi NNW 9.2 mph - N/A   Mostly Cloudy
3:35 PM 77.7 °F 51.3 °F 40% 30.02 in 10.0 mi North 11.5 mph - N/A   Scattered Clouds
3:55 PM 77.4 °F 50.7 °F 39% 30.01 in 10.0 mi NNW 9.2 mph - N/A   Mostly Cloudy
4:15 PM 77.2 °F 50.0 °F 38% 30.01 in 10.0 mi North 10.4 mph - N/A   Mostly Cloudy
4:35 PM 77.9 °F 50.2 °F 38% 30.01 in 10.0 mi NNW 9.2 mph 17.3 mph N/A   Mostly Cloudy
4:55 PM 78.6 °F 50.0 °F 37% 30.01 in 10.0 mi NNW 8.1 mph 17.3 mph N/A   Mostly Cloudy
5:15 PM 78.6 °F 49.5 °F 36% 30.02 in 10.0 mi North 8.1 mph 16.1 mph N/A   Mostly Cloudy
5:35 PM 77.5 °F 50.2 °F 38% 30.03 in 10.0 mi NNW 9.2 mph - N/A   Mostly Cloudy
5:55 PM 75.7 °F 49.8 °F 40% 30.02 in 10.0 mi NNW 5.8 mph - N/A   Scattered Clouds
6:15 PM 77.4 °F 49.8 °F 38% 30.02 in 10.0 mi North 6.9 mph - N/A   Clear
6:35 PM 77.2 °F 49.6 °F 38% 30.02 in 10.0 mi North 8.1 mph - N/A   Clear
6:55 PM 75.7 °F 50.5 °F 41% 30.02 in 10.0 mi North 5.8 mph - N/A   Clear
7:15 PM 76.3 °F 51.3 °F 41% 30.02 in 10.0 mi NNW 6.9 mph - N/A   Clear
7:35 PM 76.1 °F 51.1 °F 41% 30.02 in 10.0 mi North 8.1 mph - N/A   Clear
7:55 PM 75.4 °F 51.4 °F 43% 30.02 in 10.0 mi North 6.9 mph - N/A   Clear
8:15 PM 74.8 °F 51.1 °F 43% 30.03 in 10.0 mi NNW 8.1 mph - N/A   Clear
8:35 PM 73.8 °F 51.6 °F 46% 30.03 in 10.0 mi NNW 5.8 mph - N/A   Clear
8:55 PM 72.5 °F 52.2 °F 49% 30.04 in 10.0 mi NNW 6.9 mph - N/A   Clear
9:15 PM 71.4 °F 52.0 °F 50% 30.04 in 10.0 mi NNW 5.8 mph - N/A   Clear
9:35 PM 70.9 °F 52.0 °F 51% 30.05 in 10.0 mi North 4.6 mph - N/A   Clear
9:55 PM 70.0 °F 52.3 °F 53% 30.05 in 10.0 mi NNE 6.9 mph - N/A   Clear
10:15 PM 67.8 °F 53.2 °F 60% 30.06 in 10.0 mi NNE 6.9 mph - N/A   Clear
10:35 PM 65.7 °F 53.8 °F 65% 30.06 in 10.0 mi NNE 5.8 mph - N/A   Clear
10:55 PM 65.3 °F 54.1 °F 67% 30.07 in 10.0 mi NE 5.8 mph - N/A   Clear
11:15 PM 64.8 °F 54.5 °F 69% 30.07 in 10.0 mi NE 6.9 mph - N/A   Clear
11:35 PM 64.9 °F 54.1 °F 68% 30.06 in 10.0 mi ENE 5.8 mph - N/A   Clear
11:55 PM 64.9 °F 54.0 °F 68% 30.07 in 10.0 mi ENE 4.6 mph - N/A   Clear